This demonstration page uses our WeatherBlox Daily Observations layout. Learn more.

Left ArrowRight Arrow

38.20091, -84.87328

Hourly Observations for March 10, 2022

Temp ( °F °C ) Dew Point ( °F °C ) Humidity (%) Winds ( mph kmh ) Pressure ( in mb ) Visibility ( mi km ) Precip ( " mm )
12:53 am 00:53 Clear 32 0 30 -1.1 92 92 NW 3 6 30.10 1019 10 16 0.00 0.00
1:53 am 01:53 Clear 32 0 30 -1.1 92 92 Calm 30.09 1019 10 16 0.00 0.00
2:53 am 02:53 Clear 33 0.6 30 -1.1 89 89 Calm 30.08 1019 10 16 0.00 0.00
3:53 am 03:53 Clear 31 -0.6 29 -1.7 92 92 Calm 30.09 1019 10 16 0.00 0.00
4:53 am 04:53 Clear 31 -0.6 29 -1.7 92 92 Calm 30.10 1019 9 14 0.00 0.00
5:53 am 05:53 Clear 30 -1.1 27 -2.8 88 88 Calm 30.12 1020 10 16 0.00 0.00
6:53 am 06:53 Clear 30 -1.1 27 -2.8 88 88 Calm 30.12 1020 10 16 0.00 0.00
7:53 am 07:53 Sunny 33 0.6 30 -1.1 89 89 Calm 30.13 1020 10 16 0.00 0.00
8:53 am 08:53 Sunny 39 3.9 32 0 76 76 N 3 6 30.15 1021 10 16 0.00 0.00
9:53 am 09:53 Sunny 43 6.1 36 2.2 76 76 ENE 6 9 30.15 1021 10 16 0.00 0.00
10:53 am 10:53 Sunny 48 8.9 35 1.7 61 61 E 7 11 30.13 1020 10 16 0.00 0.00
11:53 am 11:53 Sunny 50 10 32 0 50 50 NE 6 9 30.12 1020 10 16 0.00 0.00
12:53 pm 12:53 Sunny 52 11.1 30 -1.1 43 43 NE 5 7 30.11 1020 10 16 0.00 0.00
1:53 pm 13:53 Sunny 54 12.2 31 -0.6 42 42 E 8 13 30.07 1018 10 16 0.00 0.00
2:53 pm 14:53 Mostly Cloudy 56 13.3 30 -1.1 37 37 VRB 5 7 30.05 1018 10 16 0.00 0.00
3:53 pm 15:53 Mostly Sunny 56 13.3 28 -2.2 34 34 undefined N/A 30.05 1018 10 16 0.00 0.00
4:53 pm 16:53 Sunny 55 12.8 27 -2.8 34 34 Calm 30.05 1018 10 16 0.00 0.00
5:53 pm 17:53 Sunny 55 12.8 28 -2.2 35 35 N 3 6 30.05 1018 10 16 0.00 0.00
6:53 pm 18:53 Clear 50 10 30 -1.1 46 46 Calm 30.06 1018 10 16 0.00 0.00
7:53 pm 19:53 Clear 44 6.7 32 0 63 63 Calm 30.07 1018 10 16 0.00 0.00
8:53 pm 20:53 Clear 42 5.6 32 0 68 68 NNW 3 6 30.07 1018 10 16 0.00 0.00
9:53 pm 21:53 Clear 38 3.3 31 -0.6 76 76 Calm 30.06 1018 10 16 0.00 0.00
10:53 pm 22:53 Clear 37 2.8 32 0 82 82 Calm 30.07 1018 10 16 0.00 0.00
11:53 pm 23:53 Clear 35 1.7 31 -0.6 85 85 Calm 30.05 1018 10 16 0.00 0.00

Powered by AerisWeather